TimeCDT,TemperatureF,Dew PointF,Humidity,Sea Level PressureIn,VisibilityMPH,Wind Direction,Wind SpeedMPH,Gust SpeedMPH,PrecipitationIn,Events,Conditions,WindDirDegrees,DateUTC
12:15 AM,62.6,41.0,45,29.87,10.0,SSE,20.7,31.1,N/A,,Clear,160,2013-10-09 05:15:00
12:35 AM,62.6,41.0,45,29.87,10.0,South,21.9,31.1,N/A,,Clear,170,2013-10-09 05:35:00
12:55 AM,62.6,41.0,45,29.87,10.0,South,23.0,31.1,N/A,,Clear,170,2013-10-09 05:55:00
1:15 AM,62.6,41.0,45,29.87,10.0,South,21.9,28.8,N/A,,Clear,170,2013-10-09 06:15:00
1:35 AM,62.6,41.0,45,29.87,10.0,South,23.0,28.8,N/A,,Clear,170,2013-10-09 06:35:00
1:55 AM,60.8,42.8,52,29.88,10.0,South,19.6,28.8,N/A,,Clear,170,2013-10-09 06:55:00
2:15 AM,60.8,42.8,52,29.88,10.0,SSE,23.0,27.6,N/A,,Clear,160,2013-10-09 07:15:00
2:35 AM,60.8,42.8,52,29.88,10.0,SSE,21.9,27.6,N/A,,Clear,160,2013-10-09 07:35:00
2:55 AM,60.8,42.8,52,29.88,10.0,SSE,19.6,24.2,N/A,,Clear,160,2013-10-09 07:55:00
3:15 AM,60.8,42.8,52,29.87,10.0,SSE,20.7,25.3,N/A,,Clear,160,2013-10-09 08:15:00
3:35 AM,60.8,42.8,52,29.86,10.0,SSE,21.9,27.6,N/A,,Clear,160,2013-10-09 08:35:00
3:55 AM,60.8,42.8,52,29.86,10.0,SSE,20.7,28.8,N/A,,Clear,160,2013-10-09 08:55:00
4:15 AM,60.8,42.8,52,29.86,10.0,South,20.7,27.6,N/A,,Clear,170,2013-10-09 09:15:00
4:35 AM,59.0,42.8,55,29.86,10.0,South,20.7,25.3,N/A,,Clear,170,2013-10-09 09:35:00
4:55 AM,59.0,42.8,55,29.86,10.0,South,20.7,25.3,N/A,,Clear,170,2013-10-09 09:55:00
5:15 AM,59.0,42.8,55,29.86,10.0,South,21.9,27.6,N/A,,Clear,170,2013-10-09 10:15:00
5:35 AM,59.0,42.8,55,29.86,10.0,South,21.9,29.9,N/A,,Clear,170,2013-10-09 10:35:00
5:55 AM,57.2,42.8,59,29.86,10.0,South,23.0,32.2,N/A,,Clear,170,2013-10-09 10:55:00
6:15 AM,57.2,42.8,59,29.85,10.0,South,21.9,28.8,N/A,,Clear,170,2013-10-09 11:15:00
6:35 AM,57.2,42.8,59,29.85,10.0,South,20.7,28.8,N/A,,Clear,170,2013-10-09 11:35:00
6:55 AM,57.2,42.8,59,29.86,10.0,South,20.7,25.3,N/A,,Clear,170,2013-10-09 11:55:00
7:15 AM,55.4,42.8,63,29.86,10.0,SSE,17.3,26.5,N/A,,Clear,160,2013-10-09 12:15:00
7:35 AM,55.4,42.8,63,29.86,10.0,SSE,19.6,-,N/A,,Clear,160,2013-10-09 12:35:00
7:55 AM,55.4,42.8,63,29.86,10.0,South,18.4,24.2,N/A,,Clear,170,2013-10-09 12:55:00
8:15 AM,55.4,42.8,63,29.86,10.0,SSE,19.6,26.5,N/A,,Clear,160,2013-10-09 13:15:00
8:35 AM,55.4,44.6,67,29.86,10.0,SSE,19.6,-,N/A,,Clear,160,2013-10-09 13:35:00
8:55 AM,57.2,44.6,63,29.88,10.0,South,23.0,27.6,N/A,,Clear,170,2013-10-09 13:55:00
9:15 AM,59.0,44.6,59,29.89,10.0,South,17.3,28.8,N/A,,Clear,170,2013-10-09 14:15:00
9:35 AM,60.8,44.6,55,29.89,10.0,South,20.7,31.1,N/A,,Clear,180,2013-10-09 14:35:00
9:55 AM,62.6,44.6,52,29.90,10.0,South,23.0,29.9,N/A,,Clear,180,2013-10-09 14:55:00
10:15 AM,64.4,44.6,49,29.90,10.0,South,19.6,31.1,N/A,,Clear,180,2013-10-09 15:15:00
10:35 AM,66.2,44.6,46,29.91,10.0,South,24.2,27.6,N/A,,Clear,190,2013-10-09 15:35:00
10:55 AM,68.0,44.6,43,29.92,10.0,South,20.7,26.5,N/A,,Clear,190,2013-10-09 15:55:00
11:15 AM,69.8,44.6,40,29.92,10.0,South,26.5,-,N/A,,Clear,180,2013-10-09 16:15:00
11:35 AM,69.8,44.6,40,29.92,10.0,South,20.7,26.5,N/A,,Clear,180,2013-10-09 16:35:00
11:55 AM,71.6,46.4,41,29.91,10.0,South,21.9,25.3,N/A,,Clear,170,2013-10-09 16:55:00
12:15 PM,73.4,44.6,36,29.91,10.0,South,18.4,25.3,N/A,,Clear,190,2013-10-09 17:15:00
12:35 PM,73.4,44.6,36,29.91,10.0,South,20.7,25.3,N/A,,Clear,180,2013-10-09 17:35:00
12:55 PM,75.2,46.4,36,29.90,10.0,SSE,20.7,26.5,N/A,,Clear,160,2013-10-09 17:55:00
1:15 PM,77.0,46.4,34,29.89,10.0,South,18.4,24.2,N/A,,Clear,170,2013-10-09 18:15:00
1:35 PM,78.8,46.4,32,29.89,10.0,South,19.6,25.3,N/A,,Clear,180,2013-10-09 18:35:00
1:55 PM,78.8,44.6,30,29.88,10.0,South,18.4,26.5,N/A,,Clear,170,2013-10-09 18:55:00
2:15 PM,78.8,46.4,32,29.87,10.0,South,21.9,27.6,N/A,,Clear,180,2013-10-09 19:15:00
2:35 PM,80.6,44.6,28,29.86,10.0,South,25.3,31.1,N/A,,Clear,170,2013-10-09 19:35:00
2:55 PM,80.6,44.6,28,29.85,10.0,South,26.5,35.7,N/A,,Clear,180,2013-10-09 19:55:00
3:15 PM,80.6,44.6,28,29.85,10.0,South,28.8,34.5,N/A,,Clear,180,2013-10-09 20:15:00
3:35 PM,82.4,44.6,26,29.85,10.0,South,23.0,36.8,N/A,,Clear,180,2013-10-09 20:35:00
3:55 PM,82.4,44.6,26,29.85,10.0,South,25.3,33.4,N/A,,Clear,170,2013-10-09 20:55:00
4:15 PM,82.4,44.6,26,29.84,10.0,South,28.8,33.4,N/A,,Clear,170,2013-10-09 21:15:00
4:35 PM,82.4,44.6,26,29.85,10.0,South,26.5,35.7,N/A,,Clear,180,2013-10-09 21:35:00
4:55 PM,80.6,44.6,28,29.85,10.0,South,25.3,34.5,N/A,,Clear,170,2013-10-09 21:55:00
5:15 PM,80.6,44.6,28,29.85,10.0,South,27.6,34.5,N/A,,Clear,170,2013-10-09 22:15:00
5:35 PM,80.6,44.6,28,29.84,10.0,South,26.5,33.4,N/A,,Clear,180,2013-10-09 22:35:00
5:55 PM,78.8,42.8,28,29.85,10.0,South,27.6,33.4,N/A,,Clear,180,2013-10-09 22:55:00
6:15 PM,78.8,42.8,28,29.85,10.0,South,24.2,27.6,N/A,,Clear,170,2013-10-09 23:15:00
6:35 PM,77.0,42.8,29,29.86,10.0,SSE,23.0,31.1,N/A,,Clear,160,2013-10-09 23:35:00
6:55 PM,75.2,42.8,31,29.86,10.0,SSE,23.0,-,N/A,,Clear,160,2013-10-09 23:55:00
7:15 PM,73.4,42.8,33,29.87,10.0,SSE,18.4,-,N/A,,Clear,160,2013-10-10 00:15:00
7:35 PM,73.4,42.8,33,29.87,10.0,SSE,19.6,25.3,N/A,,Clear,160,2013-10-10 00:35:00
7:55 PM,71.6,42.8,35,29.87,10.0,SSE,17.3,-,N/A,,Clear,160,2013-10-10 00:55:00
8:15 PM,71.6,42.8,35,29.88,10.0,SSE,18.4,-,N/A,,Clear,160,2013-10-10 01:15:00
8:35 PM,69.8,44.6,40,29.88,10.0,SSE,19.6,25.3,N/A,,Clear,160,2013-10-10 01:35:00
8:55 PM,69.8,44.6,40,29.88,10.0,SSE,20.7,26.5,N/A,,Clear,160,2013-10-10 01:55:00
9:15 PM,69.8,44.6,40,29.89,10.0,South,23.0,27.6,N/A,,Clear,170,2013-10-10 02:15:00
9:35 PM,69.8,44.6,40,29.90,10.0,SSE,16.1,-,N/A,,Clear,160,2013-10-10 02:35:00
9:55 PM,66.2,44.6,46,29.90,10.0,SSE,20.7,26.5,N/A,,Clear,160,2013-10-10 02:55:00
10:15 PM,66.2,46.4,49,29.91,10.0,SSE,21.9,27.6,N/A,,Clear,160,2013-10-10 03:15:00
10:35 PM,66.2,46.4,49,29.92,10.0,South,19.6,-,N/A,,Clear,170,2013-10-10 03:35:00
10:55 PM,66.2,46.4,49,29.92,10.0,SSE,17.3,-,N/A,,Clear,160,2013-10-10 03:55:00
11:15 PM,64.4,46.4,52,29.92,10.0,SSE,17.3,21.9,N/A,,Clear,160,2013-10-10 04:15:00
11:35 PM,64.4,46.4,52,29.93,10.0,South,15.0,-,N/A,,Clear,170,2013-10-10 04:35:00
11:55 PM,64.4,46.4,52,29.93,10.0,SSE,15.0,-,N/A,,Clear,160,2013-10-10 04:55:00